• în Republica Moldova
  • Lista ţărilor
  • Pe 7 zile
  • Temperatura apei
  • Hartă satelitară
  • Meteo pe hartă
  • Widget-uri
  • user-avatar
    Intrare

    Meteo pe oră la Ali Bayramli

    Astăzi, 18 August, Vineri

    Timp Temperatura Precipitaţii Vânt Presiune Umiditate
    00:00 +30°C° 0 mm 4 m/s 756 mmHg 42%
    01:00 +29°C° 0,1 mm 4 m/s 756 mmHg 43%
    02:00 +29°C° 0,1 mm 4 m/s 756 mmHg 44%
    03:00 +28°C° 0 mm 4 m/s 755 mmHg 43%
    04:00 +29°C° 0,1 mm 4 m/s 755 mmHg 43%
    05:00 +29°C° 0,1 mm 3 m/s 756 mmHg 42%
    06:00 +29°C° 0,1 mm 3 m/s 756 mmHg 41%
    07:00 +30°C° 0 mm 3 m/s 756 mmHg 38%
    08:00 +33°C° 0 mm 3 m/s 756 mmHg 34%
    09:00 +35°C° 0 mm 3 m/s 756 mmHg 29%
    10:00 +36°C° 0 mm 3 m/s 756 mmHg 29%
    11:00 +37°C° 0 mm 3 m/s 756 mmHg 29%
    12:00 +37°C° 0 mm 3 m/s 756 mmHg 29%
    13:00 +38°C° 0 mm 4 m/s 756 mmHg 29%
    14:00 +39°C° 0 mm 5 m/s 756 mmHg 30%
    15:00 +39°C° 0 mm 6 m/s 755 mmHg 33%
    16:00 +38°C° 0 mm 6 m/s 756 mmHg 34%
    17:00 +36°C° 0 mm 6 m/s 756 mmHg 36%
    18:00 +35°C° 0 mm 7 m/s 756 mmHg 37%
    19:00 +34°C° 0 mm 7 m/s 757 mmHg 39%
    20:00 +33°C° 0 mm 7 m/s 757 mmHg 41%
    21:00 +32°C° 0 mm 7 m/s 758 mmHg 43%
    22:00 +30°C° 0 mm 7 m/s 758 mmHg 42%
    23:00 +30°C° 0 mm 7 m/s 758 mmHg 41%

    Mâine, 19 August, Sâmbătă

    Timp Temperatura Precipitaţii Vânt Presiune Umiditate
    00:00 +29°C° 0 mm 7 m/s 758 mmHg 41%
    01:00 +29°C° 0 mm 7 m/s 758 mmHg 39%
    02:00 +29°C° 0 mm 6 m/s 758 mmHg 37%
    03:00 +29°C° 0 mm 5 m/s 758 mmHg 35%
    04:00 +29°C° 0 mm 5 m/s 758 mmHg 36%
    05:00 +29°C° 0 mm 5 m/s 758 mmHg 37%
    06:00 +29°C° 0 mm 4 m/s 758 mmHg 37%
    07:00 +30°C° 0 mm 4 m/s 758 mmHg 35%
    08:00 +33°C° 0 mm 4 m/s 759 mmHg 32%
    09:00 +34°C° 0 mm 4 m/s 759 mmHg 29%
    10:00 +36°C° 0 mm 5 m/s 759 mmHg 27%
    11:00 +37°C° 0 mm 5 m/s 759 mmHg 25%
    12:00 +39°C° 0 mm 6 m/s 759 mmHg 23%
    13:00 +39°C° 0 mm 6 m/s 758 mmHg 22%
    14:00 +39°C° 0 mm 7 m/s 758 mmHg 22%
    15:00 +39°C° 0 mm 7 m/s 758 mmHg 21%
    16:00 +38°C° 0 mm 7 m/s 758 mmHg 21%
    17:00 +36°C° 0 mm 7 m/s 758 mmHg 22%
    18:00 +35°C° 0 mm 6 m/s 759 mmHg 22%
    19:00 +34°C° 0 mm 5 m/s 759 mmHg 27%
    20:00 +33°C° 0 mm 5 m/s 759 mmHg 31%
    21:00 +32°C° 0 mm 4 m/s 759 mmHg 35%
    22:00 +30°C° 0 mm 4 m/s 759 mmHg 37%
    23:00 +30°C° 0 mm 3 m/s 759 mmHg 39%

    Poimâine, 20 August, Duminică

    Timp Temperatura Precipitaţii Vânt Presiune Umiditate
    00:00 +29°C° 0 mm 3 m/s 759 mmHg 41%
    01:00 +29°C° 0 mm 3 m/s 759 mmHg 41%
    02:00 +28°C° 0 mm 2 m/s 759 mmHg 40%
    03:00 +28°C° 0 mm 2 m/s 759 mmHg 40%
    04:00 +28°C° 0 mm 2 m/s 759 mmHg 40%
    05:00 +28°C° 0 mm 2 m/s 759 mmHg 40%
    06:00 +28°C° 0 mm 2 m/s 759 mmHg 40%
    07:00 +30°C° 0 mm 2 m/s 759 mmHg 37%
    08:00 +33°C° 0 mm 3 m/s 759 mmHg 33%
    09:00 +35°C° 0 mm 3 m/s 759 mmHg 30%
    10:00 +36°C° 0 mm 4 m/s 759 mmHg 28%
    11:00 +37°C° 0 mm 5 m/s 759 mmHg 27%
    12:00 +39°C° 0 mm 6 m/s 759 mmHg 25%
    13:00 +39°C° 0 mm 7 m/s 758 mmHg 26%
    14:00 +38°C° 0 mm 7 m/s 758 mmHg 27%
    15:00 +38°C° 0 mm 8 m/s 758 mmHg 27%
    16:00 +36°C° 0 mm 7 m/s 758 mmHg 29%
    17:00 +35°C° 0 mm 7 m/s 758 mmHg 31%
    18:00 +34°C° 0 mm 6 m/s 758 mmHg 32%
    19:00 +33°C° 0 mm 5 m/s 758 mmHg 36%
    20:00 +32°C° 0 mm 5 m/s 758 mmHg 39%
    21:00 +30°C° 0 mm 4 m/s 759 mmHg 43%
    22:00 +29°C° 0 mm 3 m/s 758 mmHg 43%
    23:00 +29°C° 0 mm 3 m/s 758 mmHg 44%

    21 August, Luni

    Timp Temperatura Precipitaţii Vânt Presiune Umiditate
    00:00 +29°C° 0 mm 3 m/s 758 mmHg 45%
    01:00 +28°C° 0 mm 2 m/s 757 mmHg 45%
    02:00 +28°C° 0 mm 2 m/s 757 mmHg 45%
    03:00 +27°C° 0 mm 1 m/s 757 mmHg 45%
    04:00 +27°C° 0 mm 1 m/s 757 mmHg 43%
    05:00 +28°C° 0 mm 1 m/s 757 mmHg 42%
    06:00 +28°C° 0 mm 1 m/s 757 mmHg 40%
    07:00 +30°C° 0 mm 1 m/s 757 mmHg 36%
    08:00 +32°C° 0 mm 1 m/s 757 mmHg 32%
    09:00 +33°C° 0 mm 1 m/s 757 mmHg 27%
    10:00 +36°C° 0 mm 2 m/s 757 mmHg 25%
    11:00 +37°C° 0 mm 3 m/s 756 mmHg 23%
    12:00 +38°C° 0 mm 3 m/s 756 mmHg 21%
    13:00 +38°C° 0 mm 4 m/s 756 mmHg 21%
    14:00 +40°C° 0 mm 5 m/s 755 mmHg 21%
    15:00 +40°C° 0 mm 6 m/s 755 mmHg 21%
    16:00 +39°C° 0 mm 6 m/s 755 mmHg 23%
    17:00 +36°C° 0 mm 6 m/s 755 mmHg 25%
    18:00 +35°C° 0 mm 5 m/s 755 mmHg 28%
    19:00 +34°C° 0 mm 5 m/s 755 mmHg 32%
    20:00 +33°C° 0 mm 4 m/s 755 mmHg 36%
    21:00 +30°C° 0 mm 3 m/s 756 mmHg 40%
    22:00 +30°C° 0 mm 3 m/s 755 mmHg 41%
    23:00 +29°C° 0 mm 3 m/s 755 mmHg 41%

    22 August, Marţi

    Timp Temperatura Precipitaţii Vânt Presiune Umiditate
    00:00 +29°C° 0 mm 2 m/s 755 mmHg 42%
    01:00 +29°C° 0 mm 2 m/s 755 mmHg 42%
    02:00 +28°C° 0 mm 2 m/s 755 mmHg 42%
    03:00 +28°C° 0 mm 2 m/s 755 mmHg 42%
    04:00 +28°C° 0 mm 2 m/s 755 mmHg 41%
    05:00 +28°C° 0 mm 1 m/s 755 mmHg 41%
    06:00 +28°C° 0 mm 1 m/s 755 mmHg 41%
    07:00 +30°C° 0 mm 2 m/s 755 mmHg 38%
    08:00 +32°C° 0 mm 2 m/s 756 mmHg 34%
    09:00 +35°C° 0 mm 2 m/s 756 mmHg 31%
    10:00 +36°C° 0 mm 3 m/s 755 mmHg 29%
    11:00 +37°C° 0 mm 4 m/s 755 mmHg 27%
    12:00 +39°C° 0 mm 5 m/s 755 mmHg 26%
    13:00 +39°C° 0 mm 5 m/s 754 mmHg 26%
    14:00 +39°C° 0 mm 6 m/s 754 mmHg 26%
    15:00 +39°C° 0 mm 7 m/s 754 mmHg 26%
    16:00 +38°C° 0 mm 7 m/s 754 mmHg 28%
    17:00 +36°C° 0 mm 7 m/s 754 mmHg 30%
    18:00 +34°C° 0 mm 6 m/s 754 mmHg 33%
    19:00 +33°C° 0 mm 5 m/s 755 mmHg 36%
    20:00 +32°C° 0 mm 5 m/s 755 mmHg 39%
    21:00 +30°C° 0 mm 4 m/s 756 mmHg 42%
    22:00 +29°C° 0 mm 4 m/s 756 mmHg 41%
    23:00 +29°C° 0 mm 3 m/s 756 mmHg 40%

    23 August, Miercuri

    Timp Temperatura Precipitaţii Vânt Presiune Umiditate
    00:00 +29°C° 0 mm 3 m/s 755 mmHg 39%
    01:00 +28°C° 0 mm 3 m/s 755 mmHg 38%
    02:00 +28°C° 0 mm 2 m/s 755 mmHg 37%
    03:00 +28°C° 0 mm 2 m/s 755 mmHg 37%
    04:00 +28°C° 0 mm 2 m/s 756 mmHg 38%
    05:00 +28°C° 0 mm 2 m/s 756 mmHg 40%
    06:00 +28°C° 0 mm 1 m/s 756 mmHg 41%
    07:00 +30°C° 0 mm 2 m/s 757 mmHg 37%
    08:00 +32°C° 0 mm 2 m/s 757 mmHg 33%
    09:00 +35°C° 0 mm 3 m/s 757 mmHg 28%
    10:00 +36°C° 0 mm 4 m/s 757 mmHg 26%
    11:00 +37°C° 0 mm 5 m/s 757 mmHg 24%
    12:00 +39°C° 0 mm 7 m/s 756 mmHg 22%
    13:00 +39°C° 0 mm 7 m/s 756 mmHg 22%
    14:00 +38°C° 0 mm 7 m/s 756 mmHg 22%
    15:00 +38°C° 0 mm 8 m/s 756 mmHg 22%
    16:00 +36°C° 0 mm 7 m/s 756 mmHg 23%
    17:00 +35°C° 0 mm 6 m/s 756 mmHg 24%
    18:00 +34°C° 0 mm 6 m/s 756 mmHg 26%
    19:00 +33°C° 0 mm 5 m/s 757 mmHg 30%
    20:00 +32°C° 0 mm 4 m/s 757 mmHg 34%
    21:00 +29°C° 0 mm 3 m/s 757 mmHg 37%
    22:00 +29°C° 0 mm 3 m/s 757 mmHg 37%
    23:00 +29°C° 0 mm 3 m/s 757 mmHg 37%
    Arată mai mult